Regional Weather Roundup
Issued by NWS

Home | Current Version | Previous Version | Text Only | Print | Product List | Glossary Off
Versions: 1 2 3 4 5 6 7 8 9 10 11 12 13 14 15 16 17 18 19 20 21 22 23 24 25 26 27 28 29 30 31 32 33 34 35 36 37 38 39 40 41 42 43 44 45 46 47 48 49 50

000
ASUS45 KPSR 310310
RWRAZ

ARIZONA REGIONAL HOURLY WEATHER ROUNDUP
NATIONAL WEATHER SERVICE PHOENIX AZ
800 PM MST FRI JAN 30 2015

NOTE: FAIR INDICATES FEW OR NO CLOUDS BELOW 12,000 FEET WITH NO
SIGNIFICANT WEATHER AND/OR OBSTRUCTIONS TO VISIBILITY.

AZZ001>003-036-310400-
NORTHWEST ARIZONA

CITY           SKY/WX    TMP DP  RH WIND       PRES   REMARKS
BULLHEAD CITY  PTCLDY    55  50  82 N12       29.87S
KINGMAN        CLOUDY    47  44  90 NE5       29.86S
$$

AZZ004>008-015-016-018-310400-
NORTH CENTRAL ARIZONA

CITY           SKY/WX    TMP DP  RH WIND       PRES   REMARKS
GRAND CANYON   CLOUDY    37  35  92 E5        29.90S WCI  33
PRESCOTT       CLOUDY    46  44  93 S3        29.89R
FLAGSTAFF      CLOUDY    39  37  92 CALM      29.91S
PAYSON         LGT RAIN  43  43 100 CALM      29.93S
$$

AZZ009>014-017-310400-
NORTHEAST ARIZONA

CITY           SKY/WX    TMP DP  RH WIND       PRES   REMARKS
WINSLOW        LGT RAIN  46  44  93 SE7       29.90S
SAINT JOHNS    LGT RAIN  46  39  76 CALM      29.90R
WINDOW ROCK    LGT SNOW  34  31  88 CALM      29.97S FOG
SHOW LOW       LGT RAIN  37  36  93 S13       29.95S WCI  29
$$

AZZ023-310400-
GREATER PHOENIX AREA

CITY           SKY/WX    TMP DP  RH WIND       PRES   REMARKS
PHOENIX        LGT RAIN  57  54  89 E6        29.84R
BUCKEYE          N/A     59  59 100 E6        29.84F
GLENDALE       CLOUDY    57  57 100 E6        29.86S
LUKE AFB       CLOUDY    58  56  93 E8        29.84R
DEER VALLEY    CLOUDY    55  54  96 NE3       29.85R
SCOTTSDALE     CLOUDY    56  52  86 CALM      29.86R
MESA-FALCON    CLOUDY    54  54 100 NE7       29.85R
CHANDLER       CLOUDY    55  55 100 CALM      29.86R
$$

AZZ027-028-310400-
SOUTHWEST MARICOPA COUNTY AND PINAL COUNTY

CITY           SKY/WX    TMP DP  RH WIND       PRES   REMARKS
CASA GRANDE    CLOUDY    55  54  94 CALM      29.86S
GILA BEND      MOCLDY    59  56  91 CALM      29.84R
$$

AZZ503-504-507>509-310400-
SOUTHEAST ARIZONA

CITY           SKY/WX    TMP DP  RH WIND       PRES   REMARKS
TUCSON         LGT RAIN  55  53  93 S6        29.90S
DAVIS-MONTHAN  LGT RAIN  54  54 100 SE5       29.88S
RYAN FIELD       N/A     55  55 100 E5        29.89S
NOGALES        LGT RAIN  50  47  89 SE6       29.91R FOG
SIERRA VISTA   LGT RAIN  48  43  81 SW10      29.92R
DOUGLAS        RAIN      51  49  92 SE8       29.93R FOG
SAFFORD        HVY RAIN  47  46  97 SW7       29.94R FOG
$$

AZZ020-021-025-026-031-310400-
SOUTHWEST ARIZONA

CITY           SKY/WX    TMP DP  RH WIND       PRES   REMARKS
YUMA           CLOUDY    64  52  64 NE6       29.84R
$$

CAZ031-033-041-043-047-048-061-310400-
SOUTHERN CALIFORNIA

CITY           SKY/WX    TMP DP  RH WIND       PRES   REMARKS
DOWNTOWN L.A.  MOCLDY    62  53  72 CALM      29.85R
L.A. AIRPORT   MOCLDY    60  56  86 SW5       29.85S
SAN DIEGO      CLOUDY    62  52  69 CALM      29.90R
BURBANK        MOCLDY    58  54  86 CALM      29.85R
ONTARIO        CLOUDY    60  50  69 SW5       29.86R
RIVERSIDE      MOCLDY    57  53  86 N3        29.86S
PALM SPRINGS   MOCLDY    63  52  67 CALM      29.86R
EL CENTRO NAS  MOCLDY    61  49  64 CALM      29.83S
IMPERIAL       MOCLDY    62  48  60 N6        29.83R
BLYTHE         CLOUDY    61  54  77 N7        29.84R
NEEDLES        CLOUDY    58  48  69 NW7       29.86R
$$

NVZ020-UTZ003-310400-
SOUTHERN NEVADA-UTAH

CITY           SKY/WX    TMP DP  RH WIND       PRES   REMARKS
LAS VEGAS      CLOUDY    52  43  71 VRB5      29.83S
SALT LAKE CITY CLOUDY    40  36  86 W7        29.98F
$$

NMZ009-TXZ055-310400-
NEW MEXICO-WEST TEXAS

CITY           SKY/WX    TMP DP  RH WIND       PRES   REMARKS
ALBUQUERQUE    LGT RAIN  34  32  92 N8        30.07S WCI  27
EL PASO        LGT RAIN  44  41  89 NE8       30.07S
$$


........................KEY........................
SKY/WX - SKY CONDITION/WEATHER
TMP    - TEMPERATURE IN FAHRENHEIT
DP     - DEW POINT IN FAHRENHEIT
RH     - RELATIVE HUMIDITY IN PERCENT
WIND   - DIRECTION AND SPEED IN MILES PER HOUR (MPH)
VRB    - VARIABLE WIND DIRECTION
PRES   - MEAN SEA LEVEL PRESSURE IN INCHES OF MERCURY
         F - FALLING PRESSURE   R - RISING PRESSURE
         S - STEADY PRESSURE
VSB    - VISIBILITY IN MILES
HX     - HEAT INDEX IN FAHRENHEIT
WCI    - WIND CHILL INDEX IN FAHRENHEIT
TC     - TEMPERATURE IN CELSIUS WHICH IS ALSO KNOWN AS
         TEMPERATURE IN CENTIGRADE
AFB    - AIR FORCE BASE
         LUKE AFB IS LUKE AIR FORCE BASE
         DAVIS-MONTHAN IS DAVIS-MONTHAN AIR FORCE BASE
NAS    - NAVAL AIR STATION
         EL CENTRO NAS IS EL CENTRO NAVAL AIR STATION
N/A    - NOT AVAILABLE



USA.gov is the U.S. government's official web portal to all federal, state and local government web resources and services.